Tracking 30743 objects as of 21-Jun-2025
HD Live streaming from Space Station
objects crossing your sky now

NOAA 16 DEB

Track NOAA 16 DEB now!
10-day predictions


NORAD ID: 41262
Int'l Code: 2000-055FN
Perigee: 801.1 km
Apogee: 865.1 km
Inclination: 98.8 °
Period: 101.4 minutes
Semi major axis: 7204 km
RCS: Unknown
Launch date: September 21, 2000
Source: United States (US)
Launch site: AIR FORCE WESTERN TEST RANGE (AFWTR)

Note: This is SATELLITE DEBRIS
Your satellite tracking list
Your tracking list is empty




NASA's NSSDC Master Catalog

Two Line Element Set (TLE):
1 41262U 00055FN  25169.80011909  .00004730  00000-0  22293-2 0  9990
2 41262  98.7979 196.0268 0044409 278.7518  80.8630 14.19824961487950
Source of the keplerian elements: AFSPC